owner,sensor,date,latitude,longitude,air_pressure(mBar),qcFlag 
TABS,ioos:station:wmo:42043:1,2009-02-01T00:00:00Z,28.9818,-94.9186,1022.61,11111222 
TABS,ioos:station:wmo:42043:1,2009-02-01T00:30:00Z,28.9818,-94.9186,1022.24,11111222 
TABS,ioos:station:wmo:42043:1,2009-02-01T01:00:00Z,28.9818,-94.9186,1022.1,11111222 
TABS,ioos:station:wmo:42043:1,2009-02-01T01:30:00Z,28.9818,-94.9186,1022.02,11111222 
TABS,ioos:station:wmo:42043:1,2009-02-01T02:00:00Z,28.9818,-94.9186,1022.07,11111222 
TABS,ioos:station:wmo:42043:1,2009-02-01T02:30:00Z,28.9818,-94.9186,1022.11,11111222 
TABS,ioos:station:wmo:42043:1,2009-02-01T03:00:00Z,28.9818,-94.9186,1021.9,11111222 
TABS,ioos:station:wmo:42043:1,2009-02-01T03:30:00Z,28.9818,-94.9186,1021.64,11111222 
TABS,ioos:station:wmo:42043:1,2009-02-01T04:00:00Z,28.9818,-94.9186,1021.34,11111222 
TABS,ioos:station:wmo:42043:1,2009-02-01T04:30:00Z,28.9818,-94.9186,1021.15,11111222 
TABS,ioos:station:wmo:42043:1,2009-02-01T05:00:00Z,28.9818,-94.9186,1020.84,11111222 
TABS,ioos:station:wmo:42043:1,2009-02-01T05:30:00Z,28.9818,-94.9186,1020.45,11111222 
TABS,ioos:station:wmo:42043:1,2009-02-01T06:00:00Z,28.9818,-94.9186,1020.11,11111222 
TABS,ioos:station:wmo:42043:1,2009-02-01T06:30:00Z,28.9818,-94.9186,1019.74,11111222 
TABS,ioos:station:wmo:42043:1,2009-02-01T07:00:00Z,28.9818,-94.9186,1019.19,11111222 
TABS,ioos:station:wmo:42043:1,2009-02-01T07:30:00Z,28.9818,-94.9186,1018.94,11111222 
TABS,ioos:station:wmo:42043:1,2009-02-01T08:00:00Z,28.9818,-94.9186,1018.53,11111222 
TABS,ioos:station:wmo:42043:1,2009-02-01T08:30:00Z,28.9818,-94.9186,1018.06,11111222 
TABS,ioos:station:wmo:42043:1,2009-02-01T09:00:00Z,28.9818,-94.9186,1017.58,11111222 
TABS,ioos:station:wmo:42043:1,2009-02-01T09:30:00Z,28.9818,-94.9186,1017.39,11111222 
TABS,ioos:station:wmo:42043:1,2009-02-01T10:00:00Z,28.9818,-94.9186,1017.06,11111222 
TABS,ioos:station:wmo:42043:1,2009-02-01T10:30:00Z,28.9818,-94.9186,1016.92,11111222 
TABS,ioos:station:wmo:42043:1,2009-02-01T11:00:00Z,28.9818,-94.9186,1016.87,11111222 
TABS,ioos:station:wmo:42043:1,2009-02-01T11:30:00Z,28.9818,-94.9186,1016.74,11111222 
TABS,ioos:station:wmo:42043:1,2009-02-01T12:00:00Z,28.9818,-94.9186,1016.66,11111222 
TABS,ioos:station:wmo:42043:1,2009-02-01T12:30:00Z,28.9818,-94.9186,1016.68,11111222 
TABS,ioos:station:wmo:42043:1,2009-02-01T13:00:00Z,28.9818,-94.9186,1016.69,11111222 
TABS,ioos:station:wmo:42043:1,2009-02-01T13:30:00Z,28.9818,-94.9186,1016.75,11111222 
TABS,ioos:station:wmo:42043:1,2009-02-01T14:00:00Z,28.9818,-94.9186,1016.77,11111222 
TABS,ioos:station:wmo:42043:1,2009-02-01T14:30:00Z,28.9818,-94.9186,1016.77,11111222 
TABS,ioos:station:wmo:42043:1,2009-02-01T15:00:00Z,28.9818,-94.9186,1017.05,11111222 
TABS,ioos:station:wmo:42043:1,2009-02-01T15:30:00Z,28.9818,-94.9186,1016.97,11111222 
TABS,ioos:station:wmo:42043:1,2009-02-01T16:00:00Z,28.9818,-94.9186,1017.11,11111222 
TABS,ioos:station:wmo:42043:1,2009-02-01T16:30:00Z,28.9818,-94.9186,1016.94,11111222 
TABS,ioos:station:wmo:42043:1,2009-02-01T17:00:00Z,28.9818,-94.9186,1016.58,11111222 
TABS,ioos:station:wmo:42043:1,2009-02-01T17:30:00Z,28.9818,-94.9186,1016.15,11111222 
TABS,ioos:station:wmo:42043:1,2009-02-01T18:00:00Z,28.9818,-94.9186,1015.24,11111222 
TABS,ioos:station:wmo:42043:1,2009-02-01T18:30:00Z,28.9818,-94.9186,1014.62,11111222 
TABS,ioos:station:wmo:42043:1,2009-02-01T19:00:00Z,28.9818,-94.9186,1013.92,11111222 
TABS,ioos:station:wmo:42043:1,2009-02-01T19:30:00Z,28.9818,-94.9186,1013.28,11111222 
TABS,ioos:station:wmo:42043:1,2009-02-01T20:00:00Z,28.9818,-94.9186,1013.05,11111222 
TABS,ioos:station:wmo:42043:1,2009-02-01T20:30:00Z,28.9818,-94.9186,1012.64,11111222 
TABS,ioos:station:wmo:42043:1,2009-02-01T21:00:00Z,28.9818,-94.9186,1012.45,11111222 
TABS,ioos:station:wmo:42043:1,2009-02-01T21:30:00Z,28.9818,-94.9186,1012.41,11111222 
TABS,ioos:station:wmo:42043:1,2009-02-01T22:00:00Z,28.9818,-94.9186,1012.41,11111222 
TABS,ioos:station:wmo:42043:1,2009-02-01T22:30:00Z,28.9818,-94.9186,1012.37,11111222 
TABS,ioos:station:wmo:42043:1,2009-02-01T23:00:00Z,28.9818,-94.9186,1012.31,11111222 
TABS,ioos:station:wmo:42043:1,2009-02-01T23:30:00Z,28.9818,-94.9186,1012.35,11111222 
TABS,ioos:station:wmo:42043:1,2009-02-02T00:00:00Z,28.9818,-94.9186,1012.42,11111222 
TABS,ioos:station:wmo:42043:1,2009-02-02T00:30:00Z,28.9818,-94.9186,1012.68,11111222 
TABS,ioos:station:wmo:42043:1,2009-02-02T01:00:00Z,28.9818,-94.9186,1012.67,11111222 
TABS,ioos:station:wmo:42043:1,2009-02-02T01:30:00Z,28.9818,-94.9186,1012.59,11111222 
TABS,ioos:station:wmo:42043:1,2009-02-02T02:00:00Z,28.9818,-94.9186,1012.77,11111222 
TABS,ioos:station:wmo:42043:1,2009-02-02T02:30:00Z,28.9818,-94.9186,1013.0,11111222 
TABS,ioos:station:wmo:42043:1,2009-02-02T03:00:00Z,28.9818,-94.9186,1013.27,11111222 
TABS,ioos:station:wmo:42043:1,2009-02-02T03:30:00Z,28.9818,-94.9186,1013.46,11111222 
TABS,ioos:station:wmo:42043:1,2009-02-02T04:00:00Z,28.9818,-94.9186,1013.32,11111222 
TABS,ioos:station:wmo:42043:1,2009-02-02T04:30:00Z,28.9818,-94.9186,1013.17,11111222 
TABS,ioos:station:wmo:42043:1,2009-02-02T05:00:00Z,28.9818,-94.9186,1013.19,11111222 
TABS,ioos:station:wmo:42043:1,2009-02-02T05:30:00Z,28.9818,-94.9186,1012.95,11111222 
TABS,ioos:station:wmo:42043:1,2009-02-02T06:00:00Z,28.9818,-94.9186,1012.78,11111222 
TABS,ioos:station:wmo:42043:1,2009-02-02T06:30:00Z,28.9818,-94.9186,1012.72,11111222 
TABS,ioos:station:wmo:42043:1,2009-02-02T07:00:00Z,28.9818,-94.9186,1012.64,11111222 
TABS,ioos:station:wmo:42043:1,2009-02-02T07:30:00Z,28.9818,-94.9186,1012.89,11111222 
TABS,ioos:station:wmo:42043:1,2009-02-02T08:00:00Z,28.9818,-94.9186,1012.82,11111222 
TABS,ioos:station:wmo:42043:1,2009-02-02T08:30:00Z,28.9818,-94.9186,1012.96,11111222 
TABS,ioos:station:wmo:42043:1,2009-02-02T09:00:00Z,28.9818,-94.9186,1013.29,11111222 
TABS,ioos:station:wmo:42043:1,2009-02-02T09:30:00Z,28.9818,-94.9186,1013.72,11111222 
TABS,ioos:station:wmo:42043:1,2009-02-02T10:00:00Z,28.9818,-94.9186,1013.91,11111222 
TABS,ioos:station:wmo:42043:1,2009-02-02T10:30:00Z,28.9818,-94.9186,1014.15,11111222 
TABS,ioos:station:wmo:42043:1,2009-02-02T11:00:00Z,28.9818,-94.9186,1014.65,11111222 
TABS,ioos:station:wmo:42043:1,2009-02-02T11:30:00Z,28.9818,-94.9186,1014.97,11111222 
TABS,ioos:station:wmo:42043:1,2009-02-02T12:00:00Z,28.9818,-94.9186,1015.65,11111222 
TABS,ioos:station:wmo:42043:1,2009-02-02T12:30:00Z,28.9818,-94.9186,1016.25,11111222 
TABS,ioos:station:wmo:42043:1,2009-02-02T13:00:00Z,28.9818,-94.9186,1016.61,11111222 
TABS,ioos:station:wmo:42043:1,2009-02-02T13:30:00Z,28.9818,-94.9186,1017.3,11111222 
TABS,ioos:station:wmo:42043:1,2009-02-02T14:00:00Z,28.9818,-94.9186,1017.97,11111222 
TABS,ioos:station:wmo:42043:1,2009-02-02T14:30:00Z,28.9818,-94.9186,1018.66,11111222 
TABS,ioos:station:wmo:42043:1,2009-02-02T15:00:00Z,28.9818,-94.9186,1019.5,11111222 
TABS,ioos:station:wmo:42043:1,2009-02-02T15:30:00Z,28.9818,-94.9186,1020.23,11111222 
TABS,ioos:station:wmo:42043:1,2009-02-02T16:00:00Z,28.9818,-94.9186,1020.63,11111222 
TABS,ioos:station:wmo:42043:1,2009-02-02T16:30:00Z,28.9818,-94.9186,1020.97,11111222 
TABS,ioos:station:wmo:42043:1,2009-02-02T17:00:00Z,28.9818,-94.9186,1021.64,11111222 
TABS,ioos:station:wmo:42043:1,2009-02-02T17:30:00Z,28.9818,-94.9186,1021.74,11111222 
TABS,ioos:station:wmo:42043:1,2009-02-02T18:00:00Z,28.9818,-94.9186,1021.53,11111222 
TABS,ioos:station:wmo:42043:1,2009-02-02T18:30:00Z,28.9818,-94.9186,1021.19,11111222 
TABS,ioos:station:wmo:42043:1,2009-02-02T19:00:00Z,28.9818,-94.9186,1021.0,11111222 
TABS,ioos:station:wmo:42043:1,2009-02-02T19:30:00Z,28.9818,-94.9186,1020.99,11111222 
TABS,ioos:station:wmo:42043:1,2009-02-02T20:00:00Z,28.9818,-94.9186,1020.87,11111222 
TABS,ioos:station:wmo:42043:1,2009-02-02T20:30:00Z,28.9818,-94.9186,1020.99,11111222 
TABS,ioos:station:wmo:42043:1,2009-02-02T21:00:00Z,28.9818,-94.9186,1021.07,11111222 
TABS,ioos:station:wmo:42043:1,2009-02-02T21:30:00Z,28.9818,-94.9186,1021.49,11111222 
TABS,ioos:station:wmo:42043:1,2009-02-02T22:00:00Z,28.9818,-94.9186,1021.74,11111222 
TABS,ioos:station:wmo:42043:1,2009-02-02T22:30:00Z,28.9818,-94.9186,1022.2,11111222 
TABS,ioos:station:wmo:42043:1,2009-02-02T23:00:00Z,28.9818,-94.9186,1022.61,11111222 
TABS,ioos:station:wmo:42043:1,2009-02-02T23:30:00Z,28.9818,-94.9186,1022.9,11111222 
TABS,ioos:station:wmo:42043:1,2009-02-03T00:00:00Z,28.9818,-94.9186,1023.11,11111222 
TABS,ioos:station:wmo:42043:1,2009-02-03T00:30:00Z,28.9818,-94.9186,1023.32,11111222 
TABS,ioos:station:wmo:42043:1,2009-02-03T01:00:00Z,28.9818,-94.9186,1023.8,11111222 
TABS,ioos:station:wmo:42043:1,2009-02-03T01:30:00Z,28.9818,-94.9186,1024.1,11111222 
TABS,ioos:station:wmo:42043:1,2009-02-03T02:00:00Z,28.9818,-94.9186,1024.31,11111222 
TABS,ioos:station:wmo:42043:1,2009-02-03T02:30:00Z,28.9818,-94.9186,1024.44,11111222 
TABS,ioos:station:wmo:42043:1,2009-02-03T03:00:00Z,28.9818,-94.9186,1024.61,11111222 
TABS,ioos:station:wmo:42043:1,2009-02-03T03:30:00Z,28.9818,-94.9186,1024.77,11111222 
TABS,ioos:station:wmo:42043:1,2009-02-03T04:00:00Z,28.9818,-94.9186,1024.91,11111222 
TABS,ioos:station:wmo:42043:1,2009-02-03T04:30:00Z,28.9818,-94.9186,1024.84,11111222 
TABS,ioos:station:wmo:42043:1,2009-02-03T05:00:00Z,28.9818,-94.9186,1024.84,11111222 
TABS,ioos:station:wmo:42043:1,2009-02-03T05:30:00Z,28.9818,-94.9186,1024.86,11111222 
TABS,ioos:station:wmo:42043:1,2009-02-03T06:00:00Z,28.9818,-94.9186,1024.94,11111222 
TABS,ioos:station:wmo:42043:1,2009-02-03T06:30:00Z,28.9818,-94.9186,1025.02,11111222 
TABS,ioos:station:wmo:42043:1,2009-02-03T07:00:00Z,28.9818,-94.9186,1024.96,11111222 
TABS,ioos:station:wmo:42043:1,2009-02-03T07:30:00Z,28.9818,-94.9186,1025.05,11111222 
TABS,ioos:station:wmo:42043:1,2009-02-03T08:00:00Z,28.9818,-94.9186,1025.12,11111222 
TABS,ioos:station:wmo:42043:1,2009-02-03T08:30:00Z,28.9818,-94.9186,1025.19,11111222 
TABS,ioos:station:wmo:42043:1,2009-02-03T09:00:00Z,28.9818,-94.9186,1025.45,11111222 
TABS,ioos:station:wmo:42043:1,2009-02-03T09:30:00Z,28.9818,-94.9186,1025.22,11111222 
TABS,ioos:station:wmo:42043:1,2009-02-03T10:00:00Z,28.9818,-94.9186,1025.02,11111222 
TABS,ioos:station:wmo:42043:1,2009-02-03T10:30:00Z,28.9818,-94.9186,1024.93,11111222 
TABS,ioos:station:wmo:42043:1,2009-02-03T11:00:00Z,28.9818,-94.9186,1024.83,11111222 
TABS,ioos:station:wmo:42043:1,2009-02-03T11:30:00Z,28.9818,-94.9186,1024.86,11111222 
TABS,ioos:station:wmo:42043:1,2009-02-03T12:00:00Z,28.9818,-94.9186,1024.88,11111222 
TABS,ioos:station:wmo:42043:1,2009-02-03T12:30:00Z,28.9818,-94.9186,1024.93,11111222 
TABS,ioos:station:wmo:42043:1,2009-02-03T13:00:00Z,28.9818,-94.9186,1025.1,11111222 
TABS,ioos:station:wmo:42043:1,2009-02-03T13:30:00Z,28.9818,-94.9186,1025.15,11111222 
TABS,ioos:station:wmo:42043:1,2009-02-03T14:00:00Z,28.9818,-94.9186,1025.4,11111222 
TABS,ioos:station:wmo:42043:1,2009-02-03T14:30:00Z,28.9818,-94.9186,1025.89,11111222 
TABS,ioos:station:wmo:42043:1,2009-02-03T15:00:00Z,28.9818,-94.9186,1026.37,11111222 
TABS,ioos:station:wmo:42043:1,2009-02-03T15:30:00Z,28.9818,-94.9186,1026.93,11111222 
TABS,ioos:station:wmo:42043:1,2009-02-03T16:00:00Z,28.9818,-94.9186,1027.23,11111222 
TABS,ioos:station:wmo:42043:1,2009-02-03T16:30:00Z,28.9818,-94.9186,1027.21,11111222 
TABS,ioos:station:wmo:42043:1,2009-02-03T17:00:00Z,28.9818,-94.9186,1027.15,11111222 
TABS,ioos:station:wmo:42043:1,2009-02-03T17:30:00Z,28.9818,-94.9186,1027.07,11111222 
TABS,ioos:station:wmo:42043:1,2009-02-03T18:00:00Z,28.9818,-94.9186,1026.45,11111222 
TABS,ioos:station:wmo:42043:1,2009-02-03T18:30:00Z,28.9818,-94.9186,1025.83,11111222 
TABS,ioos:station:wmo:42043:1,2009-02-03T19:00:00Z,28.9818,-94.9186,1025.39,11111222 
TABS,ioos:station:wmo:42043:1,2009-02-03T19:30:00Z,28.9818,-94.9186,1025.12,11111222 
TABS,ioos:station:wmo:42043:1,2009-02-03T20:00:00Z,28.9818,-94.9186,1024.9,11111222 
TABS,ioos:station:wmo:42043:1,2009-02-03T20:30:00Z,28.9818,-94.9186,1024.64,11111222 
TABS,ioos:station:wmo:42043:1,2009-02-03T21:00:00Z,28.9818,-94.9186,1024.27,11111222 
TABS,ioos:station:wmo:42043:1,2009-02-03T21:30:00Z,28.9818,-94.9186,1024.4,11111222 
TABS,ioos:station:wmo:42043:1,2009-02-03T22:00:00Z,28.9818,-94.9186,1024.26,11111222 
TABS,ioos:station:wmo:42043:1,2009-02-03T22:30:00Z,28.9818,-94.9186,1024.22,11111222 
TABS,ioos:station:wmo:42043:1,2009-02-03T23:00:00Z,28.9818,-94.9186,1024.27,11111222 
TABS,ioos:station:wmo:42043:1,2009-02-03T23:30:00Z,28.9818,-94.9186,1024.28,11111222 
TABS,ioos:station:wmo:42043:1,2009-02-04T00:00:00Z,28.9818,-94.9186,1024.39,11111222 
TABS,ioos:station:wmo:42043:1,2009-02-04T00:30:00Z,28.9818,-94.9186,1024.53,11111222 
TABS,ioos:station:wmo:42043:1,2009-02-04T01:00:00Z,28.9818,-94.9186,1024.74,11111222 
TABS,ioos:station:wmo:42043:1,2009-02-04T01:30:00Z,28.9818,-94.9186,1025.07,11111222 
TABS,ioos:station:wmo:42043:1,2009-02-04T02:00:00Z,28.9818,-94.9186,1025.35,11111222 
TABS,ioos:station:wmo:42043:1,2009-02-04T02:30:00Z,28.9818,-94.9186,1025.64,11111222 
TABS,ioos:station:wmo:42043:1,2009-02-04T03:00:00Z,28.9818,-94.9186,1026.02,11111222 
TABS,ioos:station:wmo:42043:1,2009-02-04T03:30:00Z,28.9818,-94.9186,1026.28,11111222 
TABS,ioos:station:wmo:42043:1,2009-02-04T04:00:00Z,28.9818,-94.9186,1026.39,11111222 
TABS,ioos:station:wmo:42043:1,2009-02-04T04:30:00Z,28.9818,-94.9186,1026.69,11111222 
TABS,ioos:station:wmo:42043:1,2009-02-04T05:00:00Z,28.9818,-94.9186,1026.83,11111222 
TABS,ioos:station:wmo:42043:1,2009-02-04T05:30:00Z,28.9818,-94.9186,1027.0,11111222 
TABS,ioos:station:wmo:42043:1,2009-02-04T06:00:00Z,28.9818,-94.9186,1027.15,11111222 
TABS,ioos:station:wmo:42043:1,2009-02-04T06:30:00Z,28.9818,-94.9186,1027.18,11111222 
TABS,ioos:station:wmo:42043:1,2009-02-04T07:00:00Z,28.9818,-94.9186,1027.19,11111222 
TABS,ioos:station:wmo:42043:1,2009-02-04T07:30:00Z,28.9818,-94.9186,1027.41,11111222 
TABS,ioos:station:wmo:42043:1,2009-02-04T08:00:00Z,28.9818,-94.9186,1027.78,11111222 
TABS,ioos:station:wmo:42043:1,2009-02-04T08:30:00Z,28.9818,-94.9186,1028.01,11111222 
TABS,ioos:station:wmo:42043:1,2009-02-04T09:00:00Z,28.9818,-94.9186,1028.1,11111222 
TABS,ioos:station:wmo:42043:1,2009-02-04T09:30:00Z,28.9818,-94.9186,1028.43,11111222 
TABS,ioos:station:wmo:42043:1,2009-02-04T10:00:00Z,28.9818,-94.9186,1028.51,11111222 
TABS,ioos:station:wmo:42043:1,2009-02-04T10:30:00Z,28.9818,-94.9186,1029.21,11111222 
TABS,ioos:station:wmo:42043:1,2009-02-04T11:00:00Z,28.9818,-94.9186,1029.56,11111222 
TABS,ioos:station:wmo:42043:1,2009-02-04T11:30:00Z,28.9818,-94.9186,1029.74,11111222 
TABS,ioos:station:wmo:42043:1,2009-02-04T12:00:00Z,28.9818,-94.9186,1030.18,11111222 
TABS,ioos:station:wmo:42043:1,2009-02-04T12:30:00Z,28.9818,-94.9186,1030.72,11111222 
TABS,ioos:station:wmo:42043:1,2009-02-04T13:00:00Z,28.9818,-94.9186,1031.35,11111222 
TABS,ioos:station:wmo:42043:1,2009-02-04T13:30:00Z,28.9818,-94.9186,1032.03,11111222 
TABS,ioos:station:wmo:42043:1,2009-02-04T14:00:00Z,28.9818,-94.9186,1032.21,11111222 
TABS,ioos:station:wmo:42043:1,2009-02-04T14:30:00Z,28.9818,-94.9186,1032.77,11111222 
TABS,ioos:station:wmo:42043:1,2009-02-04T15:00:00Z,28.9818,-94.9186,1033.44,11111222 
TABS,ioos:station:wmo:42043:1,2009-02-04T15:30:00Z,28.9818,-94.9186,1034.16,11111222 
TABS,ioos:station:wmo:42043:1,2009-02-04T16:00:00Z,28.9818,-94.9186,1034.38,11111222 
TABS,ioos:station:wmo:42043:1,2009-02-04T16:30:00Z,28.9818,-94.9186,1034.79,11111222 
TABS,ioos:station:wmo:42043:1,2009-02-04T17:00:00Z,28.9818,-94.9186,1034.7,11111222 
TABS,ioos:station:wmo:42043:1,2009-02-04T17:30:00Z,28.9818,-94.9186,1034.81,11111222 
TABS,ioos:station:wmo:42043:1,2009-02-04T18:00:00Z,28.9818,-94.9186,1034.69,11111222 
TABS,ioos:station:wmo:42043:1,2009-02-04T18:30:00Z,28.9818,-94.9186,1034.28,11111222 
TABS,ioos:station:wmo:42043:1,2009-02-04T19:00:00Z,28.9818,-94.9186,1033.9,11111222 
TABS,ioos:station:wmo:42043:1,2009-02-04T19:30:00Z,28.9818,-94.9186,1033.82,11111222 
TABS,ioos:station:wmo:42043:1,2009-02-04T20:00:00Z,28.9818,-94.9186,1033.97,11111222 
TABS,ioos:station:wmo:42043:1,2009-02-04T20:30:00Z,28.9818,-94.9186,1033.23,11111222 
TABS,ioos:station:wmo:42043:1,2009-02-04T21:00:00Z,28.9818,-94.9186,1033.24,11111222 
TABS,ioos:station:wmo:42043:1,2009-02-04T21:30:00Z,28.9818,-94.9186,1033.33,11111222 
TABS,ioos:station:wmo:42043:1,2009-02-04T22:00:00Z,28.9818,-94.9186,1033.3,11111222 
TABS,ioos:station:wmo:42043:1,2009-02-04T22:30:00Z,28.9818,-94.9186,1033.47,11111222 
TABS,ioos:station:wmo:42043:1,2009-02-04T23:00:00Z,28.9818,-94.9186,1033.41,11111222 
TABS,ioos:station:wmo:42043:1,2009-02-04T23:30:00Z,28.9818,-94.9186,1033.65,11111222 
TABS,ioos:station:wmo:42043:1,2009-02-05T00:00:00Z,28.9818,-94.9186,1033.73,11111222 
TABS,ioos:station:wmo:42043:1,2009-02-05T00:30:00Z,28.9818,-94.9186,1033.7,11111222 
TABS,ioos:station:wmo:42043:1,2009-02-05T01:00:00Z,28.9818,-94.9186,1033.87,11111222 
TABS,ioos:station:wmo:42043:1,2009-02-05T01:30:00Z,28.9818,-94.9186,1034.04,11111222 
TABS,ioos:station:wmo:42043:1,2009-02-05T02:00:00Z,28.9818,-94.9186,1034.08,11111222 
TABS,ioos:station:wmo:42043:1,2009-02-05T02:30:00Z,28.9818,-94.9186,1034.17,11111222 
TABS,ioos:station:wmo:42043:1,2009-02-05T03:00:00Z,28.9818,-94.9186,1034.11,11111222 
TABS,ioos:station:wmo:42043:1,2009-02-05T03:30:00Z,28.9818,-94.9186,1034.2,11111222 
TABS,ioos:station:wmo:42043:1,2009-02-05T04:00:00Z,28.9818,-94.9186,1034.16,11111222 
TABS,ioos:station:wmo:42043:1,2009-02-05T04:30:00Z,28.9818,-94.9186,1034.16,11111222 
TABS,ioos:station:wmo:42043:1,2009-02-05T05:00:00Z,28.9818,-94.9186,1034.16,11111222 
TABS,ioos:station:wmo:42043:1,2009-02-05T05:30:00Z,28.9818,-94.9186,1033.82,11111222 
TABS,ioos:station:wmo:42043:1,2009-02-05T06:00:00Z,28.9818,-94.9186,1033.76,11111222 
TABS,ioos:station:wmo:42043:1,2009-02-05T06:30:00Z,28.9818,-94.9186,1033.52,11111222 
TABS,ioos:station:wmo:42043:1,2009-02-05T07:00:00Z,28.9818,-94.9186,1033.31,11111222 
TABS,ioos:station:wmo:42043:1,2009-02-05T07:30:00Z,28.9818,-94.9186,1032.96,11111222 
TABS,ioos:station:wmo:42043:1,2009-02-05T08:00:00Z,28.9818,-94.9186,1032.73,11111222 
TABS,ioos:station:wmo:42043:1,2009-02-05T08:30:00Z,28.9818,-94.9186,1032.6,11111222 
TABS,ioos:station:wmo:42043:1,2009-02-05T09:00:00Z,28.9818,-94.9186,1032.23,11111222 
TABS,ioos:station:wmo:42043:1,2009-02-05T09:30:00Z,28.9818,-94.9186,1032.1,11111222 
TABS,ioos:station:wmo:42043:1,2009-02-05T10:00:00Z,28.9818,-94.9186,1031.95,11111222 
TABS,ioos:station:wmo:42043:1,2009-02-05T10:30:00Z,28.9818,-94.9186,1031.88,11111222 
TABS,ioos:station:wmo:42043:1,2009-02-05T11:00:00Z,28.9818,-94.9186,1031.96,11111222 
TABS,ioos:station:wmo:42043:1,2009-02-05T11:30:00Z,28.9818,-94.9186,1032.11,11111222 
TABS,ioos:station:wmo:42043:1,2009-02-05T12:00:00Z,28.9818,-94.9186,1032.25,11111222 
TABS,ioos:station:wmo:42043:1,2009-02-05T12:30:00Z,28.9818,-94.9186,1032.36,11111222 
TABS,ioos:station:wmo:42043:1,2009-02-05T13:00:00Z,28.9818,-94.9186,1032.52,11111222 
TABS,ioos:station:wmo:42043:1,2009-02-05T13:30:00Z,28.9818,-94.9186,1032.68,11111222 
TABS,ioos:station:wmo:42043:1,2009-02-05T14:00:00Z,28.9818,-94.9186,1032.69,11111222 
TABS,ioos:station:wmo:42043:1,2009-02-05T14:30:00Z,28.9818,-94.9186,1032.92,11111222 
TABS,ioos:station:wmo:42043:1,2009-02-05T15:00:00Z,28.9818,-94.9186,1033.23,11111222 
TABS,ioos:station:wmo:42043:1,2009-02-05T15:30:00Z,28.9818,-94.9186,1033.52,11111222 
TABS,ioos:station:wmo:42043:1,2009-02-05T16:00:00Z,28.9818,-94.9186,1033.94,11111222 
TABS,ioos:station:wmo:42043:1,2009-02-05T16:30:00Z,28.9818,-94.9186,1033.98,11111222 
TABS,ioos:station:wmo:42043:1,2009-02-05T17:00:00Z,28.9818,-94.9186,1033.9,11111222 
TABS,ioos:station:wmo:42043:1,2009-02-05T17:30:00Z,28.9818,-94.9186,1033.52,11111222 
TABS,ioos:station:wmo:42043:1,2009-02-05T18:00:00Z,28.9818,-94.9186,1032.95,11111222 
TABS,ioos:station:wmo:42043:1,2009-02-05T18:30:00Z,28.9818,-94.9186,1032.21,11111222 
TABS,ioos:station:wmo:42043:1,2009-02-05T19:00:00Z,28.9818,-94.9186,1031.92,11111222 
TABS,ioos:station:wmo:42043:1,2009-02-05T19:30:00Z,28.9818,-94.9186,1031.49,11111222 
TABS,ioos:station:wmo:42043:1,2009-02-05T20:00:00Z,28.9818,-94.9186,1031.25,11111222 
TABS,ioos:station:wmo:42043:1,2009-02-05T20:30:00Z,28.9818,-94.9186,1030.88,11111222 
TABS,ioos:station:wmo:42043:1,2009-02-05T21:00:00Z,28.9818,-94.9186,1030.64,11111222 
TABS,ioos:station:wmo:42043:1,2009-02-05T21:30:00Z,28.9818,-94.9186,1030.6,11111222 
TABS,ioos:station:wmo:42043:1,2009-02-05T22:00:00Z,28.9818,-94.9186,1030.46,11111222 
TABS,ioos:station:wmo:42043:1,2009-02-05T22:30:00Z,28.9818,-94.9186,1030.31,11111222 
TABS,ioos:station:wmo:42043:1,2009-02-05T23:00:00Z,28.9818,-94.9186,1030.14,11111222 
TABS,ioos:station:wmo:42043:1,2009-02-05T23:30:00Z,28.9818,-94.9186,1029.97,11111222 
TABS,ioos:station:wmo:42043:1,2009-02-06T00:00:00Z,28.9818,-94.9186,1029.86,11111222 
TABS,ioos:station:wmo:42043:1,2009-02-06T00:30:00Z,28.9818,-94.9186,1029.82,11111222 
TABS,ioos:station:wmo:42043:1,2009-02-06T01:00:00Z,28.9818,-94.9186,1029.91,11111222 
TABS,ioos:station:wmo:42043:1,2009-02-06T01:30:00Z,28.9818,-94.9186,1030.02,11111222 
TABS,ioos:station:wmo:42043:1,2009-02-06T02:00:00Z,28.9818,-94.9186,1029.91,11111222 
TABS,ioos:station:wmo:42043:1,2009-02-06T02:30:00Z,28.9818,-94.9186,1030.0,11111222 
TABS,ioos:station:wmo:42043:1,2009-02-06T03:00:00Z,28.9818,-94.9186,1030.06,11111222 
TABS,ioos:station:wmo:42043:1,2009-02-06T03:30:00Z,28.9818,-94.9186,1029.94,11111222 
TABS,ioos:station:wmo:42043:1,2009-02-06T04:00:00Z,28.9818,-94.9186,1029.76,11111222 
TABS,ioos:station:wmo:42043:1,2009-02-06T04:30:00Z,28.9818,-94.9186,1029.72,11111222 
TABS,ioos:station:wmo:42043:1,2009-02-06T05:00:00Z,28.9818,-94.9186,1029.64,11111222 
TABS,ioos:station:wmo:42043:1,2009-02-06T05:30:00Z,28.9818,-94.9186,1029.66,11111222 
TABS,ioos:station:wmo:42043:1,2009-02-06T06:00:00Z,28.9818,-94.9186,1029.08,11111222 
TABS,ioos:station:wmo:42043:1,2009-02-06T06:30:00Z,28.9818,-94.9186,1028.93,11111222 
TABS,ioos:station:wmo:42043:1,2009-02-06T07:00:00Z,28.9818,-94.9186,1028.65,11111222 
TABS,ioos:station:wmo:42043:1,2009-02-06T07:30:00Z,28.9818,-94.9186,1028.4,11111222 
TABS,ioos:station:wmo:42043:1,2009-02-06T08:00:00Z,28.9818,-94.9186,1028.09,11111222 
TABS,ioos:station:wmo:42043:1,2009-02-06T08:30:00Z,28.9818,-94.9186,1027.94,11111222 
TABS,ioos:station:wmo:42043:1,2009-02-06T09:00:00Z,28.9818,-94.9186,1027.84,11111222 
TABS,ioos:station:wmo:42043:1,2009-02-06T09:30:00Z,28.9818,-94.9186,1027.52,11111222 
TABS,ioos:station:wmo:42043:1,2009-02-06T10:00:00Z,28.9818,-94.9186,1027.23,11111222 
TABS,ioos:station:wmo:42043:1,2009-02-06T10:30:00Z,28.9818,-94.9186,1027.22,11111222 
TABS,ioos:station:wmo:42043:1,2009-02-06T11:00:00Z,28.9818,-94.9186,1027.18,11111222 
TABS,ioos:station:wmo:42043:1,2009-02-06T11:30:00Z,28.9818,-94.9186,1027.01,11111222 
TABS,ioos:station:wmo:42043:1,2009-02-06T12:00:00Z,28.9818,-94.9186,1026.91,11111222 
TABS,ioos:station:wmo:42043:1,2009-02-06T12:30:00Z,28.9818,-94.9186,1026.82,11111222 
TABS,ioos:station:wmo:42043:1,2009-02-06T13:00:00Z,28.9818,-94.9186,1026.84,11111222 
TABS,ioos:station:wmo:42043:1,2009-02-06T13:30:00Z,28.9818,-94.9186,1026.63,11111222 
TABS,ioos:station:wmo:42043:1,2009-02-06T14:00:00Z,28.9818,-94.9186,1027.19,11111222 
TABS,ioos:station:wmo:42043:1,2009-02-06T14:30:00Z,28.9818,-94.9186,1027.53,11111222 
TABS,ioos:station:wmo:42043:1,2009-02-06T15:00:00Z,28.9818,-94.9186,1027.6,11111222 
TABS,ioos:station:wmo:42043:1,2009-02-06T15:30:00Z,28.9818,-94.9186,1027.57,11111222 
TABS,ioos:station:wmo:42043:1,2009-02-06T16:00:00Z,28.9818,-94.9186,1028.18,11111222 
TABS,ioos:station:wmo:42043:1,2009-02-06T16:30:00Z,28.9818,-94.9186,1028.42,11111222 
TABS,ioos:station:wmo:42043:1,2009-02-06T17:00:00Z,28.9818,-94.9186,1028.58,11111222 
TABS,ioos:station:wmo:42043:1,2009-02-06T17:30:00Z,28.9818,-94.9186,1028.06,11111222 
TABS,ioos:station:wmo:42043:1,2009-02-06T18:00:00Z,28.9818,-94.9186,1027.82,11111222 
TABS,ioos:station:wmo:42043:1,2009-02-06T18:30:00Z,28.9818,-94.9186,1027.11,11111222 